Weather History for Wadena, MN

Change the Weather History Date:

Sunday, July 28, 2013

  Actual Average Record
Temperature  
Mean Temperature 56 °F -  
Max Temperature 71 °F 78 °F 100 °F (1988)
Min Temperature 42 °F 57 °F 42 °F (2013)
Degree Days  
Heating Degree Days 8    
Growing Degree Days 6 (Base 50)    
Moisture  
Dew Point 47 °F    
Average Humidity 69    
Maximum Humidity 94    
Minimum Humidity 43    
Precipitation  
Precipitation 0.00 in - - ()
Sea Level Pressure  
Sea Level Pressure 30.03 in    
Wind  
Wind Speed 6 mph (North)    
Max Wind Speed 17 mph    
Max Gust Speed 21 mph    
Visibility 10 miles    
Events      
Averages and records for this station are not official NWS values.
T = Trace of Precipitation, MM = Missing Value Source: NWS Daily Summary

Daily Weather History Graph

Daily Weather History Graph

Search for Another Location

Airport:

Trip Planner

Search our weather history database for the weather conditions in past years. The results will help you decide how hot, cold, wet, or windy it might be!

Date:

Astronomy

Jul. 28, 2013 Rise Set
Actual Time 5:57 AM CDT 8:56 PM CDT
Civil Twilight 5:21 AM CDT 9:31 PM CDT
Nautical Twilight 4:36 AM CDT 10:17 PM CDT
Astronomical Twilight 3:41 AM CDT 11:11 PM CDT
Moon 11:49 PM CDT (7/28) 1:08 PM CDT (7/28)
Length of Visible Light 16h 09m
Length of Day
14h 58m
Waning Gibbous, 60% of the Moon is Illuminated
Jul 28
Waning Gibbous
Jul 29
Last Quarter
Aug 6
New
Aug 14
First Quarter
Aug 20
Full

Hourly Weather History & Observations

Time (CDT) Temp. Windchill Dew Point Humidity Pressure Visibility Wind Dir Wind Speed Gust Speed Precip Events Conditions
12:15 AM 50.0 °F - 42.8 °F 76% 30.04 in 10.0 mi NW 5.8 mph - N/A   Clear
12:35 AM 48.2 °F - 42.8 °F 82% 30.03 in 10.0 mi NW 6.9 mph - N/A   Clear
12:53 AM 48.2 °F - 42.8 °F 82% 30.02 in 10.0 mi NNW 6.9 mph - N/A   Clear
1:15 AM 50.0 °F - 42.8 °F 76% 30.03 in 10.0 mi NNW 6.9 mph - N/A   Clear
1:35 AM 48.2 °F - 42.8 °F 82% 30.03 in 10.0 mi NNW 8.1 mph - N/A   Clear
1:52 AM 48.2 °F - 42.8 °F 82% 30.03 in 10.0 mi NW 5.8 mph - N/A   Clear
2:15 AM 48.2 °F - 42.8 °F 82% 30.03 in 10.0 mi NNW 5.8 mph - N/A   Clear
2:35 AM 46.4 °F 43.5 °F 42.8 °F 87% 30.03 in 10.0 mi NNW 5.8 mph - N/A   Clear
2:53 AM 46.4 °F 44.3 °F 42.8 °F 87% 30.04 in 10.0 mi NW 4.6 mph - N/A   Clear
3:15 AM 46.4 °F 44.3 °F 42.8 °F 87% 30.03 in 10.0 mi NNW 4.6 mph - N/A   Clear
3:35 AM 44.6 °F 42.2 °F 42.8 °F 93% 30.03 in 10.0 mi NNW 4.6 mph - N/A   Clear
3:53 AM 46.4 °F - 42.8 °F 87% 30.03 in 10.0 mi Calm Calm - N/A   Clear
4:15 AM 44.6 °F 42.2 °F 41.0 °F 87% 30.02 in 10.0 mi NW 4.6 mph - N/A   Clear
4:34 AM 44.6 °F 43.1 °F 41.0 °F 87% 30.02 in 10.0 mi NW 3.5 mph - N/A   Clear
4:53 AM 44.6 °F - 41.0 °F 87% 30.02 in 10.0 mi Calm Calm - N/A   Clear
5:15 AM 44.6 °F - 41.0 °F 87% 30.02 in 10.0 mi Calm Calm - N/A   Clear
5:35 AM 42.8 °F - 41.0 °F 93% 30.03 in 10.0 mi Calm Calm - N/A   Clear
5:53 AM 42.8 °F - 41.0 °F 93% 30.03 in 10.0 mi Calm Calm - N/A   Clear
6:15 AM 44.6 °F 43.1 °F 42.8 °F 93% 30.03 in 10.0 mi WNW 3.5 mph - N/A   Clear
6:35 AM 44.6 °F - 42.8 °F 93% 30.04 in 10.0 mi Calm Calm - N/A   Clear
6:53 AM 46.4 °F 45.2 °F 44.6 °F 93% 30.04 in 10.0 mi NW 3.5 mph - N/A   Clear
7:14 AM 48.2 °F - 44.6 °F 87% 30.04 in 10.0 mi NW 3.5 mph - N/A   Clear
7:35 AM 50.0 °F - 46.4 °F 87% 30.04 in 10.0 mi NW 4.6 mph - N/A   Clear
7:53 AM 51.8 °F - 46.4 °F 82% 30.05 in 10.0 mi NNW 4.6 mph - N/A   Clear
8:15 AM 53.6 °F - 46.4 °F 77% 30.04 in 10.0 mi NNW 8.1 mph - N/A   Clear
8:35 AM 55.4 °F - 46.4 °F 72% 30.04 in 10.0 mi North 8.1 mph - N/A   Clear
8:53 AM 57.2 °F - 46.4 °F 67% 30.04 in 10.0 mi North 8.1 mph - N/A   Clear
9:14 AM 57.2 °F - 46.4 °F 67% 30.03 in 10.0 mi North 11.5 mph - N/A   Clear
9:35 AM 60.8 °F - 46.4 °F 59% 30.04 in 10.0 mi North 9.2 mph - N/A   Clear
9:52 AM 60.8 °F - 46.4 °F 59% 30.03 in 10.0 mi North 12.7 mph - N/A   Clear
10:15 AM 60.8 °F - 46.4 °F 59% 30.03 in 10.0 mi North 10.4 mph 16.1 mph N/A   Clear
10:35 AM 62.6 °F - 46.4 °F 55% 30.03 in 10.0 mi North 10.4 mph 19.6 mph N/A   Clear
10:53 AM 62.6 °F - 44.6 °F 52% 30.03 in 10.0 mi North 17.3 mph - N/A   Clear
11:15 AM 64.4 °F - 46.4 °F 52% 30.03 in 10.0 mi NNE 10.4 mph 13.8 mph N/A   Clear
11:35 AM 64.4 °F - 46.4 °F 52% 30.03 in 10.0 mi North 10.4 mph 20.7 mph N/A   Clear
11:52 AM 64.4 °F - 48.2 °F 56% 30.03 in 10.0 mi North 13.8 mph 18.4 mph N/A   Clear
12:15 PM 66.2 °F - 46.4 °F 49% 30.04 in 10.0 mi NNE 12.7 mph 19.6 mph N/A   Clear
12:35 PM 66.2 °F - 48.2 °F 52% 30.04 in 10.0 mi North 11.5 mph 18.4 mph N/A   Clear
12:52 PM 66.2 °F - 48.2 °F 52% 30.04 in 10.0 mi North 11.5 mph 18.4 mph N/A   Scattered Clouds
1:14 PM 66.2 °F - 48.2 °F 52% 30.03 in 10.0 mi North 11.5 mph - N/A   Scattered Clouds
1:35 PM 66.2 °F - 48.2 °F 52% 30.03 in 10.0 mi North 10.4 mph - N/A   Clear
1:53 PM 68.0 °F - 48.2 °F 49% 30.03 in 10.0 mi North 11.5 mph 18.4 mph N/A   Clear
2:14 PM 68.0 °F - 48.2 °F 49% 30.03 in 10.0 mi North 5.8 mph - N/A   Clear
2:35 PM 69.8 °F - 48.2 °F 46% 30.03 in 10.0 mi North 6.9 mph 19.6 mph N/A   Scattered Clouds
2:53 PM 69.8 °F - 48.2 °F 46% 30.03 in 10.0 mi NNE 8.1 mph 16.1 mph N/A   Clear
3:14 PM 69.8 °F - 50.0 °F 49% 30.02 in 10.0 mi NNW 9.2 mph - N/A   Clear
3:35 PM 69.8 °F - 48.2 °F 46% 30.02 in 10.0 mi NNE 9.2 mph - N/A   Clear
3:53 PM 69.8 °F - 48.2 °F 46% 30.03 in 10.0 mi NNE 6.9 mph - N/A   Clear
4:15 PM 71.6 °F - 48.2 °F 43% 30.02 in 10.0 mi NNE 5.8 mph - N/A   Clear
4:34 PM 71.6 °F - 48.2 °F 43% 30.02 in 10.0 mi North 5.8 mph - N/A   Clear
4:53 PM 71.6 °F - 50.0 °F 46% 30.02 in 10.0 mi NNE 9.2 mph - N/A   Scattered Clouds
5:15 PM 69.8 °F - 48.2 °F 46% 30.03 in 10.0 mi North 8.1 mph - N/A   Scattered Clouds
5:35 PM 68.0 °F - 48.2 °F 49% 30.03 in 10.0 mi Calm Calm - N/A   Scattered Clouds
5:52 PM 69.8 °F - 50.0 °F 49% 30.03 in 10.0 mi NE 3.5 mph - N/A   Mostly Cloudy
6:15 PM 71.6 °F - 50.0 °F 46% 30.02 in 10.0 mi NNE 10.4 mph - N/A   Scattered Clouds
6:35 PM 66.2 °F - 51.8 °F 60% 30.02 in 10.0 mi NNE 3.5 mph - N/A   Scattered Clouds
6:53 PM 68.0 °F - 50.0 °F 52% 30.02 in 10.0 mi Calm Calm - N/A   Scattered Clouds
7:15 PM 69.8 °F - 48.2 °F 46% 30.03 in 10.0 mi NNE 5.8 mph - N/A   Scattered Clouds
7:35 PM 68.0 °F - 50.0 °F 52% 30.03 in 10.0 mi Calm Calm - N/A   Scattered Clouds
7:52 PM 66.2 °F - 51.8 °F 60% 30.03 in 10.0 mi North 3.5 mph - N/A   Scattered Clouds
8:14 PM 62.6 °F - 51.8 °F 68% 30.04 in 10.0 mi Calm Calm - N/A   Clear
8:35 PM 62.6 °F - 51.8 °F 68% 30.04 in 10.0 mi Calm Calm - N/A   Clear
8:53 PM 60.8 °F - 51.8 °F 72% 30.04 in 10.0 mi Calm Calm - N/A   Clear
9:15 PM 57.2 °F - 51.8 °F 82% 30.04 in 10.0 mi Calm Calm - N/A   Clear
9:35 PM 55.4 °F - 51.8 °F 88% 30.05 in 10.0 mi Calm Calm - N/A   Clear
9:53 PM 55.4 °F - 50.0 °F 82% 30.06 in 10.0 mi Calm Calm - N/A   Clear
10:15 PM 53.6 °F - 50.0 °F 88% 30.06 in 10.0 mi Calm Calm - N/A   Clear
10:34 PM 53.6 °F - 50.0 °F 88% 30.07 in 10.0 mi Calm Calm - N/A   Clear
10:53 PM 53.6 °F - 48.2 °F 82% 30.07 in 10.0 mi Calm Calm - N/A   Clear
11:15 PM 51.8 °F - 48.2 °F 88% 30.07 in 10.0 mi Calm Calm - N/A   Clear
11:35 PM 51.8 °F - 50.0 °F 94% 30.07 in 10.0 mi Calm Calm - N/A   Clear
11:52 PM 51.8 °F - 48.2 °F 88% 30.07 in 10.0 mi Calm Calm - N/A   Clear